Location: Leganes-MADRID
(40.3441°N, 3.7527°W)
Time: 11:46:06
(UTC+02:00)

Hubble Space Telescope - Visible Passes

Search period start: 20 August 2017 00:00
Search period end: 30 August 2017 00:00
Orbit: 538 x 542 km, 28.5° (Epoch: 19 August)

Date Brightness Start Highest point End Pass type
(mag) Time Alt. Az. Time Alt. Az. Time Alt. Az.
20 Aug 2.7 06:17:19 14° SSW 06:18:28 15° S 06:20:57 10° SE visible
21 Aug 2.6 06:07:49 15° S 06:08:15 16° S 06:10:45 10° SE visible
22 Aug 2.7 05:58:24 15° S 05:58:24 15° S 06:00:30 10° SE visible
23 Aug 2.9 05:49:02 13° SSE 05:49:02 13° SSE 05:50:11 10° SSE visible
24 Aug 3.3 05:39:46 10° SSE 05:39:46 10° SSE 05:39:47 10° SSE visible
